Time,TemperatureF,DewpointF,PressureIn,WindDirection,WindDirectionDegrees,WindSpeedMPH,WindSpeedGustMPH,Humidity,HourlyPrecipIn,Conditions,Clouds,dailyrainin,SoftwareType,DateUTC
2013-04-27 00:00:00,54.8,44.2,30.10,North,-999,-999.0,-999.0,66,0.00,,,0.00,tws,2013-04-27 04:00:00,
2013-04-27 00:05:00,54.8,44.2,30.11,North,-999,-999.0,-999.0,67,0.00,,,0.00,tws,2013-04-27 04:05:00,
2013-04-27 00:10:00,54.8,43.9,30.10,North,-999,-999.0,-999.0,66,0.00,,,0.00,tws,2013-04-27 04:10:00,
2013-04-27 00:15:00,54.8,44.2,30.10,North,-999,-999.0,-999.0,67,0.00,,,0.00,tws,2013-04-27 04:15:00,
2013-04-27 00:20:00,54.7,44.3,30.10,North,-999,-999.0,-999.0,67,0.00,,,0.00,tws,2013-04-27 04:20:00,
2013-04-27 00:25:00,54.6,44.5,30.10,North,-999,-999.0,-999.0,68,0.00,,,0.00,tws,2013-04-27 04:25:00,
2013-04-27 00:30:00,54.5,44.5,30.10,North,-999,-999.0,-999.0,68,0.00,,,0.00,tws,2013-04-27 04:30:00,
2013-04-27 00:35:00,54.4,44.7,30.10,North,-999,-999.0,-999.0,69,0.00,,,0.00,tws,2013-04-27 04:35:00,
2013-04-27 00:40:00,54.3,44.9,30.11,North,-999,-999.0,-999.0,70,0.00,,,0.00,tws,2013-04-27 04:40:00,
2013-04-27 00:45:00,54.2,44.8,30.12,North,-999,-999.0,-999.0,70,0.00,,,0.00,tws,2013-04-27 04:45:00,
2013-04-27 00:50:00,54.2,44.8,30.11,North,-999,-999.0,-999.0,70,0.00,,,0.00,tws,2013-04-27 04:50:00,
2013-04-27 00:55:00,54.1,44.8,30.11,North,-999,-999.0,-999.0,70,0.00,,,0.00,tws,2013-04-27 04:55:00,
2013-04-27 01:00:00,54.0,45.1,30.11,North,-999,-999.0,-999.0,71,0.00,,,0.00,tws,2013-04-27 05:00:00,
2013-04-27 01:05:00,54.0,45.4,30.11,North,-999,-999.0,-999.0,72,0.00,,,0.00,tws,2013-04-27 05:05:00,
2013-04-27 01:10:00,53.9,45.4,30.11,North,-999,-999.0,-999.0,72,0.00,,,0.00,tws,2013-04-27 05:10:00,
2013-04-27 01:15:00,53.8,45.4,30.11,North,-999,-999.0,-999.0,73,0.00,,,0.00,tws,2013-04-27 05:15:00,
2013-04-27 01:20:00,53.7,45.6,30.11,North,-999,-999.0,-999.0,73,0.00,,,0.00,tws,2013-04-27 05:20:00,
2013-04-27 01:25:00,53.7,45.5,30.10,North,-999,-999.0,-999.0,73,0.00,,,0.00,tws,2013-04-27 05:25:00,
2013-04-27 01:30:00,53.6,45.7,30.10,North,-999,-999.0,-999.0,74,0.00,,,0.00,tws,2013-04-27 05:30:00,
2013-04-27 01:35:00,53.4,45.6,30.10,North,-999,-999.0,-999.0,74,0.00,,,0.00,tws,2013-04-27 05:35:00,
2013-04-27 01:40:00,53.3,45.3,30.10,North,-999,-999.0,-999.0,74,0.00,,,0.00,tws,2013-04-27 05:40:00,
2013-04-27 01:45:00,53.3,45.2,30.10,North,-999,-999.0,-999.0,73,0.00,,,0.00,tws,2013-04-27 05:45:00,
2013-04-27 01:50:00,53.2,45.2,30.10,North,-999,-999.0,-999.0,73,0.00,,,0.00,tws,2013-04-27 05:50:00,
2013-04-27 01:55:00,53.2,45.2,30.10,North,-999,-999.0,-999.0,74,0.00,,,0.00,tws,2013-04-27 05:55:00,
2013-04-27 02:00:00,53.1,45.6,30.10,North,-999,-999.0,-999.0,75,0.00,,,0.00,tws,2013-04-27 06:00:00,
2013-04-27 02:05:00,53.0,45.3,30.10,North,-999,-999.0,-999.0,74,0.00,,,0.00,tws,2013-04-27 06:05:00,
2013-04-27 02:10:00,53.0,44.9,30.10,North,-999,-999.0,-999.0,73,0.00,,,0.00,tws,2013-04-27 06:10:00,
2013-04-27 02:15:00,53.0,44.8,30.10,North,-999,-999.0,-999.0,73,0.00,,,0.00,tws,2013-04-27 06:15:00,
2013-04-27 02:20:00,53.0,44.7,30.10,North,-999,-999.0,-999.0,73,0.00,,,0.00,tws,2013-04-27 06:20:00,
2013-04-27 02:25:00,53.1,44.9,30.10,North,-999,-999.0,-999.0,73,0.00,,,0.00,tws,2013-04-27 06:25:00,
2013-04-27 02:30:00,53.0,44.8,30.10,North,-999,-999.0,-999.0,73,0.00,,,0.00,tws,2013-04-27 06:30:00,
2013-04-27 02:35:00,53.0,44.9,30.10,North,-999,-999.0,-999.0,73,0.00,,,0.00,tws,2013-04-27 06:35:00,
2013-04-27 02:40:00,52.9,44.8,30.10,North,-999,-999.0,-999.0,73,0.00,,,0.00,tws,2013-04-27 06:40:00,
2013-04-27 02:45:00,52.8,44.6,30.09,North,-999,-999.0,-999.0,73,0.00,,,0.00,tws,2013-04-27 06:45:00,
2013-04-27 02:50:00,52.8,44.5,30.09,North,-999,-999.0,-999.0,73,0.00,,,0.00,tws,2013-04-27 06:50:00,
2013-04-27 02:55:00,52.8,44.6,30.09,North,-999,-999.0,-999.0,73,0.00,,,0.00,tws,2013-04-27 06:55:00,
2013-04-27 03:00:00,52.8,44.5,30.09,North,-999,-999.0,-999.0,73,0.00,,,0.00,tws,2013-04-27 07:00:00,
2013-04-27 03:05:00,52.8,44.7,30.09,North,-999,-999.0,-999.0,73,0.00,,,0.00,tws,2013-04-27 07:05:00,
2013-04-27 03:10:00,52.8,44.7,30.09,North,-999,-999.0,-999.0,73,0.00,,,0.00,tws,2013-04-27 07:10:00,
2013-04-27 03:15:00,52.8,44.9,30.09,North,-999,-999.0,-999.0,74,0.00,,,0.00,tws,2013-04-27 07:15:00,
2013-04-27 03:20:00,52.8,45.2,30.07,North,-999,-999.0,-999.0,75,0.00,,,0.00,tws,2013-04-27 07:20:00,
2013-04-27 03:25:00,52.7,45.1,30.07,North,-999,-999.0,-999.0,75,0.00,,,0.00,tws,2013-04-27 07:25:00,
2013-04-27 03:30:00,52.6,45.3,30.07,North,-999,-999.0,-999.0,76,0.00,,,0.00,tws,2013-04-27 07:30:00,
2013-04-27 03:35:00,52.5,45.4,30.07,North,-999,-999.0,-999.0,76,0.00,,,0.00,tws,2013-04-27 07:35:00,
2013-04-27 03:40:00,52.5,45.0,30.07,North,-999,-999.0,-999.0,75,0.00,,,0.00,tws,2013-04-27 07:40:00,
2013-04-27 03:45:00,52.5,45.1,30.07,North,-999,-999.0,-999.0,75,0.00,,,0.00,tws,2013-04-27 07:45:00,
2013-04-27 03:50:00,52.5,45.0,30.06,North,-999,-999.0,-999.0,75,0.00,,,0.00,tws,2013-04-27 07:50:00,
2013-04-27 03:55:00,52.4,44.8,30.06,North,-999,-999.0,-999.0,75,0.00,,,0.00,tws,2013-04-27 07:55:00,
2013-04-27 04:00:00,52.4,44.6,30.06,North,-999,-999.0,-999.0,74,0.00,,,0.00,tws,2013-04-27 08:00:00,
2013-04-27 04:05:00,52.4,44.7,30.07,North,-999,-999.0,-999.0,75,0.00,,,0.00,tws,2013-04-27 08:05:00,
2013-04-27 04:10:00,52.2,45.0,30.07,North,-999,-999.0,-999.0,76,0.00,,,0.00,tws,2013-04-27 08:10:00,
2013-04-27 04:15:00,52.3,44.9,30.07,North,-999,-999.0,-999.0,75,0.00,,,0.00,tws,2013-04-27 08:15:00,
2013-04-27 04:20:00,52.3,44.8,30.06,North,-999,-999.0,-999.0,75,0.00,,,0.00,tws,2013-04-27 08:20:00,
2013-04-27 04:25:00,52.4,44.6,30.07,North,-999,-999.0,-999.0,74,0.00,,,0.00,tws,2013-04-27 08:25:00,
2013-04-27 04:30:00,52.4,44.8,30.07,North,-999,-999.0,-999.0,75,0.00,,,0.00,tws,2013-04-27 08:30:00,
2013-04-27 04:35:00,52.4,45.0,30.07,North,-999,-999.0,-999.0,75,0.00,,,0.00,tws,2013-04-27 08:35:00,
2013-04-27 04:40:00,52.4,45.0,30.07,North,-999,-999.0,-999.0,75,0.00,,,0.00,tws,2013-04-27 08:40:00,
2013-04-27 04:45:00,52.3,45.2,30.07,North,-999,-999.0,-999.0,76,0.00,,,0.00,tws,2013-04-27 08:45:00,
2013-04-27 04:50:00,52.2,45.0,30.07,North,-999,-999.0,-999.0,76,0.00,,,0.00,tws,2013-04-27 08:50:00,
2013-04-27 04:55:00,52.2,45.2,30.07,North,-999,-999.0,-999.0,76,0.00,,,0.00,tws,2013-04-27 08:55:00,
2013-04-27 05:00:00,52.1,45.4,30.07,North,-999,-999.0,-999.0,77,0.00,,,0.00,tws,2013-04-27 09:00:00,
2013-04-27 05:05:00,52.1,45.4,30.07,North,-999,-999.0,-999.0,77,0.00,,,0.00,tws,2013-04-27 09:05:00,
2013-04-27 05:10:00,52.1,45.4,30.07,North,-999,-999.0,-999.0,77,0.00,,,0.00,tws,2013-04-27 09:10:00,
2013-04-27 05:15:00,52.1,45.6,30.07,North,-999,-999.0,-999.0,78,0.00,,,0.00,tws,2013-04-27 09:15:00,
2013-04-27 05:20:00,52.0,45.8,30.07,North,-999,-999.0,-999.0,79,0.00,,,0.00,tws,2013-04-27 09:20:00,
2013-04-27 05:25:00,51.9,46.2,30.07,North,-999,-999.0,-999.0,80,0.00,,,0.00,tws,2013-04-27 09:25:00,
2013-04-27 05:30:00,51.9,46.3,30.07,North,-999,-999.0,-999.0,81,0.00,,,0.00,tws,2013-04-27 09:30:00,
2013-04-27 05:35:00,51.8,46.3,30.07,North,-999,-999.0,-999.0,81,0.00,,,0.00,tws,2013-04-27 09:35:00,
2013-04-27 05:40:00,51.6,46.2,30.07,North,-999,-999.0,-999.0,81,0.00,,,0.00,tws,2013-04-27 09:40:00,
2013-04-27 05:45:00,51.5,46.3,30.07,North,-999,-999.0,-999.0,82,0.00,,,0.00,tws,2013-04-27 09:45:00,
2013-04-27 05:50:00,51.3,46.4,30.07,North,-999,-999.0,-999.0,83,0.00,,,0.00,tws,2013-04-27 09:50:00,
2013-04-27 05:55:00,51.2,46.5,30.07,North,-999,-999.0,-999.0,83,0.00,,,0.00,tws,2013-04-27 09:55:00,
2013-04-27 06:00:00,51.1,46.8,30.06,North,-999,-999.0,-999.0,84,0.00,,,0.00,tws,2013-04-27 10:00:00,
2013-04-27 06:05:00,51.0,46.8,30.07,North,-999,-999.0,-999.0,85,0.00,,,0.00,tws,2013-04-27 10:05:00,
2013-04-27 06:10:00,50.8,46.9,30.07,North,-999,-999.0,-999.0,86,0.00,,,0.00,tws,2013-04-27 10:10:00,
2013-04-27 06:15:00,50.7,47.0,30.07,North,-999,-999.0,-999.0,86,0.00,,,0.00,tws,2013-04-27 10:15:00,
2013-04-27 06:20:00,50.6,46.9,30.07,North,-999,-999.0,-999.0,87,0.00,,,0.00,tws,2013-04-27 10:20:00,
2013-04-27 06:25:00,50.6,47.1,30.07,North,-999,-999.0,-999.0,87,0.00,,,0.00,tws,2013-04-27 10:25:00,
2013-04-27 06:30:00,50.6,47.2,30.07,North,-999,-999.0,-999.0,87,0.00,,,0.00,tws,2013-04-27 10:30:00,
2013-04-27 06:35:00,50.7,47.2,30.07,North,-999,-999.0,-999.0,87,0.00,,,0.00,tws,2013-04-27 10:35:00,
2013-04-27 06:40:00,50.7,47.3,30.07,North,-999,-999.0,-999.0,87,0.00,,,0.00,tws,2013-04-27 10:40:00,
2013-04-27 06:45:00,50.8,47.5,30.08,North,-999,-999.0,-999.0,88,0.00,,,0.00,tws,2013-04-27 10:45:00,
2013-04-27 06:50:00,50.8,47.5,30.08,North,-999,-999.0,-999.0,88,0.00,,,0.00,tws,2013-04-27 10:50:00,
2013-04-27 06:55:00,50.9,47.6,30.08,North,-999,-999.0,-999.0,88,0.00,,,0.00,tws,2013-04-27 10:55:00,
2013-04-27 07:00:00,51.0,47.7,30.08,North,-999,-999.0,-999.0,88,0.00,,,0.00,tws,2013-04-27 11:00:00,
2013-04-27 07:05:00,51.0,47.8,30.08,North,-999,-999.0,-999.0,88,0.00,,,0.00,tws,2013-04-27 11:05:00,
2013-04-27 07:10:00,51.1,47.8,30.09,North,-999,-999.0,-999.0,88,0.00,,,0.00,tws,2013-04-27 11:10:00,
2013-04-27 07:15:00,51.1,47.8,30.08,North,-999,-999.0,-999.0,88,0.00,,,0.00,tws,2013-04-27 11:15:00,
2013-04-27 07:20:00,51.1,47.9,30.08,North,-999,-999.0,-999.0,88,0.00,,,0.00,tws,2013-04-27 11:20:00,
2013-04-27 07:25:00,51.2,48.0,30.07,North,-999,-999.0,-999.0,88,0.00,,,0.00,tws,2013-04-27 11:25:00,
2013-04-27 07:30:00,51.2,48.1,30.07,North,-999,-999.0,-999.0,88,0.00,,,0.00,tws,2013-04-27 11:30:00,
2013-04-27 07:35:00,51.3,48.0,30.07,North,-999,-999.0,-999.0,88,0.00,,,0.00,tws,2013-04-27 11:35:00,
2013-04-27 07:40:00,51.3,48.0,30.07,North,-999,-999.0,-999.0,88,0.00,,,0.00,tws,2013-04-27 11:40:00,
2013-04-27 07:45:00,51.4,48.2,30.07,North,-999,-999.0,-999.0,88,0.00,,,0.00,tws,2013-04-27 11:45:00,
2013-04-27 07:50:00,51.5,48.0,30.08,North,-999,-999.0,-999.0,87,0.00,,,0.00,tws,2013-04-27 11:50:00,
2013-04-27 07:55:00,51.5,48.0,30.09,North,-999,-999.0,-999.0,87,0.00,,,0.00,tws,2013-04-27 11:55:00,
2013-04-27 08:00:00,51.5,47.9,30.08,North,-999,-999.0,-999.0,87,0.00,,,0.00,tws,2013-04-27 12:00:00,
2013-04-27 08:05:00,51.6,48.0,30.09,North,-999,-999.0,-999.0,87,0.00,,,0.00,tws,2013-04-27 12:05:00,
2013-04-27 08:10:00,51.8,48.1,30.09,North,-999,-999.0,-999.0,87,0.00,,,0.00,tws,2013-04-27 12:10:00,
2013-04-27 08:15:00,51.9,48.2,30.09,North,-999,-999.0,-999.0,87,0.00,,,0.00,tws,2013-04-27 12:15:00,
2013-04-27 08:20:00,51.9,48.2,30.09,North,-999,-999.0,-999.0,87,0.00,,,0.00,tws,2013-04-27 12:20:00,
2013-04-27 08:25:00,52.0,48.3,30.09,North,-999,-999.0,-999.0,86,0.00,,,0.00,tws,2013-04-27 12:25:00,
2013-04-27 08:30:00,52.1,48.3,30.09,North,-999,-999.0,-999.0,86,0.00,,,0.00,tws,2013-04-27 12:30:00,
2013-04-27 08:35:00,52.1,48.2,30.09,North,-999,-999.0,-999.0,86,0.00,,,0.00,tws,2013-04-27 12:35:00,
2013-04-27 08:40:00,52.1,48.1,30.08,North,-999,-999.0,-999.0,86,0.00,,,0.00,tws,2013-04-27 12:40:00,
2013-04-27 08:45:00,52.3,48.4,30.08,North,-999,-999.0,-999.0,86,0.00,,,0.00,tws,2013-04-27 12:45:00,
2013-04-27 08:50:00,52.4,48.4,30.09,North,-999,-999.0,-999.0,86,0.00,,,0.00,tws,2013-04-27 12:50:00,
2013-04-27 08:55:00,52.5,48.3,30.08,North,-999,-999.0,-999.0,85,0.00,,,0.00,tws,2013-04-27 12:55:00,
2013-04-27 09:00:00,52.5,48.3,30.07,North,-999,-999.0,-999.0,85,0.00,,,0.00,tws,2013-04-27 13:00:00,
2013-04-27 09:05:00,52.7,48.1,30.07,North,-999,-999.0,-999.0,84,0.00,,,0.00,tws,2013-04-27 13:05:00,
2013-04-27 09:10:00,52.8,48.1,30.08,North,-999,-999.0,-999.0,83,0.00,,,0.00,tws,2013-04-27 13:10:00,
2013-04-27 09:15:00,52.9,48.1,30.07,North,-999,-999.0,-999.0,83,0.00,,,0.00,tws,2013-04-27 13:15:00,
2013-04-27 09:20:00,53.0,48.2,30.07,North,-999,-999.0,-999.0,83,0.00,,,0.00,tws,2013-04-27 13:20:00,
2013-04-27 09:25:00,53.1,47.9,30.08,North,-999,-999.0,-999.0,82,0.00,,,0.00,tws,2013-04-27 13:25:00,
2013-04-27 09:30:00,53.3,48.2,30.08,North,-999,-999.0,-999.0,82,0.00,,,0.00,tws,2013-04-27 13:30:00,
2013-04-27 09:35:00,53.4,47.9,30.07,North,-999,-999.0,-999.0,81,0.00,,,0.00,tws,2013-04-27 13:35:00,
2013-04-27 09:40:00,53.6,47.8,30.07,North,-999,-999.0,-999.0,80,0.00,,,0.00,tws,2013-04-27 13:40:00,
2013-04-27 09:50:00,53.9,48.0,30.08,North,-999,-999.0,-999.0,80,0.00,,,0.00,tws,2013-04-27 13:50:00,
2013-04-27 09:55:00,54.0,47.7,30.08,North,-999,-999.0,-999.0,79,0.00,,,0.00,tws,2013-04-27 13:55:00,
2013-04-27 10:00:00,54.1,47.6,30.08,North,-999,-999.0,-999.0,78,0.00,,,0.00,tws,2013-04-27 14:00:00,
2013-04-27 10:05:00,54.3,47.7,30.08,North,-999,-999.0,-999.0,78,0.00,,,0.00,tws,2013-04-27 14:05:00,
2013-04-27 10:10:00,54.5,48.0,30.07,North,-999,-999.0,-999.0,78,0.00,,,0.00,tws,2013-04-27 14:10:00,
2013-04-27 10:15:00,54.8,47.9,30.08,North,-999,-999.0,-999.0,77,0.00,,,0.00,tws,2013-04-27 14:15:00,
2013-04-27 10:20:00,55.0,47.9,30.08,North,-999,-999.0,-999.0,76,0.00,,,0.00,tws,2013-04-27 14:20:00,
2013-04-27 10:25:00,55.2,48.1,30.08,North,-999,-999.0,-999.0,76,0.00,,,0.00,tws,2013-04-27 14:25:00,
2013-04-27 10:30:00,55.4,48.1,30.07,North,-999,-999.0,-999.0,76,0.00,,,0.00,tws,2013-04-27 14:30:00,
2013-04-27 10:35:00,55.6,48.0,30.07,North,-999,-999.0,-999.0,75,0.00,,,0.00,tws,2013-04-27 14:35:00,
2013-04-27 10:40:00,55.8,48.0,30.07,North,-999,-999.0,-999.0,74,0.00,,,0.00,tws,2013-04-27 14:40:00,
2013-04-27 10:45:00,56.3,48.0,30.06,North,-999,-999.0,-999.0,73,0.00,,,0.00,tws,2013-04-27 14:45:00,
2013-04-27 10:50:00,57.0,47.8,30.06,North,-999,-999.0,-999.0,71,0.00,,,0.00,tws,2013-04-27 14:50:00,
2013-04-27 10:55:00,57.7,47.7,30.06,North,-999,-999.0,-999.0,69,0.00,,,0.00,tws,2013-04-27 14:55:00,
2013-04-27 11:00:00,58.0,48.2,30.07,North,-999,-999.0,-999.0,69,0.00,,,0.00,tws,2013-04-27 15:00:00,
2013-04-27 11:10:00,58.1,47.9,30.07,North,-999,-999.0,-999.0,68,0.00,,,0.00,tws,2013-04-27 15:10:00,
2013-04-27 11:15:00,57.9,47.9,30.07,North,-999,-999.0,-999.0,68,0.00,,,0.00,tws,2013-04-27 15:15:00,
2013-04-27 11:20:00,57.8,47.6,30.07,North,-999,-999.0,-999.0,68,0.00,,,0.00,tws,2013-04-27 15:20:00,
2013-04-27 11:25:00,57.6,47.7,30.07,North,-999,-999.0,-999.0,69,0.00,,,0.00,tws,2013-04-27 15:25:00,
2013-04-27 11:30:00,57.4,47.5,30.07,North,-999,-999.0,-999.0,69,0.00,,,0.00,tws,2013-04-27 15:30:00,
2013-04-27 11:35:00,57.3,47.3,30.07,North,-999,-999.0,-999.0,68,0.00,,,0.00,tws,2013-04-27 15:35:00,
2013-04-27 11:40:00,57.2,46.8,30.07,North,-999,-999.0,-999.0,67,0.00,,,0.00,tws,2013-04-27 15:40:00,
2013-04-27 11:45:00,57.1,46.4,30.07,North,-999,-999.0,-999.0,67,0.00,,,0.00,tws,2013-04-27 15:45:00,
2013-04-27 11:50:00,57.2,46.8,30.07,North,-999,-999.0,-999.0,68,0.00,,,0.00,tws,2013-04-27 15:50:00,
2013-04-27 11:55:00,57.4,46.9,30.07,North,-999,-999.0,-999.0,67,0.00,,,0.00,tws,2013-04-27 15:55:00,
2013-04-27 12:00:00,57.6,46.6,30.07,North,-999,-999.0,-999.0,66,0.00,,,0.00,tws,2013-04-27 16:00:00,
2013-04-27 12:05:00,57.7,46.4,30.07,North,-999,-999.0,-999.0,65,0.00,,,0.00,tws,2013-04-27 16:05:00,
2013-04-27 12:10:00,57.6,46.0,30.07,North,-999,-999.0,-999.0,64,0.00,,,0.00,tws,2013-04-27 16:10:00,
2013-04-27 12:15:00,57.4,45.8,30.07,North,-999,-999.0,-999.0,64,0.00,,,0.00,tws,2013-04-27 16:15:00,
2013-04-27 12:20:00,57.2,45.4,30.07,North,-999,-999.0,-999.0,64,0.00,,,0.00,tws,2013-04-27 16:20:00,
2013-04-27 12:25:00,57.0,45.7,30.07,North,-999,-999.0,-999.0,65,0.00,,,0.00,tws,2013-04-27 16:25:00,
2013-04-27 12:30:00,56.9,45.7,30.07,North,-999,-999.0,-999.0,65,0.00,,,0.00,tws,2013-04-27 16:30:00,
2013-04-27 12:35:00,56.7,45.8,30.07,North,-999,-999.0,-999.0,66,0.00,,,0.00,tws,2013-04-27 16:35:00,
2013-04-27 12:40:00,56.8,46.3,30.07,North,-999,-999.0,-999.0,67,0.00,,,0.00,tws,2013-04-27 16:40:00,
2013-04-27 12:45:00,56.9,46.6,30.07,North,-999,-999.0,-999.0,68,0.00,,,0.00,tws,2013-04-27 16:45:00,
2013-04-27 12:50:00,57.0,47.2,30.07,North,-999,-999.0,-999.0,69,0.00,,,0.00,tws,2013-04-27 16:50:00,
2013-04-27 12:55:00,57.0,47.6,30.07,North,-999,-999.0,-999.0,70,0.00,,,0.00,tws,2013-04-27 16:55:00,
2013-04-27 13:00:00,56.9,48.2,30.07,North,-999,-999.0,-999.0,72,0.00,,,0.00,tws,2013-04-27 17:00:00,
2013-04-27 13:05:00,56.6,47.6,30.07,North,-999,-999.0,-999.0,71,0.00,,,0.00,tws,2013-04-27 17:05:00,
2013-04-27 13:10:00,56.2,47.5,30.08,North,-999,-999.0,-999.0,72,0.00,,,0.00,tws,2013-04-27 17:10:00,
2013-04-27 13:15:00,56.0,47.6,30.08,North,-999,-999.0,-999.0,73,0.12,,,0.01,tws,2013-04-27 17:15:00,
2013-04-27 13:20:00,55.8,47.5,30.08,North,-999,-999.0,-999.0,73,0.00,,,0.01,tws,2013-04-27 17:20:00,
2013-04-27 13:25:00,55.6,47.6,30.09,North,-999,-999.0,-999.0,74,0.00,,,0.01,tws,2013-04-27 17:25:00,
2013-04-27 13:30:00,55.4,47.5,30.09,North,-999,-999.0,-999.0,74,0.00,,,0.01,tws,2013-04-27 17:30:00,
2013-04-27 13:35:00,55.1,48.1,30.09,North,-999,-999.0,-999.0,76,0.00,,,0.01,tws,2013-04-27 17:35:00,
2013-04-27 13:40:00,54.7,47.9,30.09,North,-999,-999.0,-999.0,77,0.00,,,0.01,tws,2013-04-27 17:40:00,
2013-04-27 13:45:00,54.6,48.6,30.09,North,-999,-999.0,-999.0,80,0.12,,,0.02,tws,2013-04-27 17:45:00,
2013-04-27 13:50:00,54.4,48.9,30.09,North,-999,-999.0,-999.0,81,0.00,,,0.02,tws,2013-04-27 17:50:00,
2013-04-27 13:55:00,54.2,48.9,30.08,North,-999,-999.0,-999.0,82,0.12,,,0.03,tws,2013-04-27 17:55:00,
2013-04-27 14:00:00,54.0,49.1,30.08,North,-999,-999.0,-999.0,83,0.00,,,0.03,tws,2013-04-27 18:00:00,
2013-04-27 14:05:00,53.8,49.7,30.08,North,-999,-999.0,-999.0,85,0.12,,,0.04,tws,2013-04-27 18:05:00,
2013-04-27 14:10:00,53.5,49.8,30.08,North,-999,-999.0,-999.0,87,0.00,,,0.04,tws,2013-04-27 18:10:00,
2013-04-27 14:15:00,53.4,50.0,30.08,North,-999,-999.0,-999.0,88,0.12,,,0.05,tws,2013-04-27 18:15:00,
2013-04-27 14:20:00,53.4,50.4,30.09,North,-999,-999.0,-999.0,89,0.00,,,0.05,tws,2013-04-27 18:20:00,
2013-04-27 14:25:00,53.3,50.3,30.09,North,-999,-999.0,-999.0,89,0.12,,,0.06,tws,2013-04-27 18:25:00,
2013-04-27 14:30:00,52.9,49.7,30.09,North,-999,-999.0,-999.0,88,0.12,,,0.07,tws,2013-04-27 18:30:00,
2013-04-27 14:35:00,52.6,49.5,30.08,North,-999,-999.0,-999.0,88,0.00,,,0.07,tws,2013-04-27 18:35:00,
2013-04-27 14:40:00,52.4,49.5,30.08,North,-999,-999.0,-999.0,89,0.12,,,0.08,tws,2013-04-27 18:40:00,
2013-04-27 14:45:00,52.3,49.7,30.08,North,-999,-999.0,-999.0,90,0.00,,,0.08,tws,2013-04-27 18:45:00,
2013-04-27 14:50:00,52.2,49.7,30.08,North,-999,-999.0,-999.0,91,0.12,,,0.09,tws,2013-04-27 18:50:00,
2013-04-27 14:55:00,52.1,49.9,30.08,North,-999,-999.0,-999.0,92,0.00,,,0.09,tws,2013-04-27 18:55:00,
2013-04-27 15:00:00,52.0,49.9,30.08,North,-999,-999.0,-999.0,92,0.12,,,0.10,tws,2013-04-27 19:00:00,
2013-04-27 15:05:00,51.9,49.8,30.08,North,-999,-999.0,-999.0,92,0.24,,,0.12,tws,2013-04-27 19:05:00,
2013-04-27 15:10:00,51.7,49.7,30.09,North,-999,-999.0,-999.0,92,0.12,,,0.13,tws,2013-04-27 19:10:00,
2013-04-27 15:15:00,51.6,49.8,30.08,North,-999,-999.0,-999.0,93,0.24,,,0.15,tws,2013-04-27 19:15:00,
2013-04-27 15:20:00,51.6,50.0,30.07,North,-999,-999.0,-999.0,94,0.24,,,0.17,tws,2013-04-27 19:20:00,
2013-04-27 15:25:00,51.7,50.2,30.07,North,-999,-999.0,-999.0,94,0.12,,,0.18,tws,2013-04-27 19:25:00,
2013-04-27 15:30:00,51.8,50.5,30.07,North,-999,-999.0,-999.0,95,0.24,,,0.20,tws,2013-04-27 19:30:00,
2013-04-27 15:35:00,51.8,50.5,30.06,North,-999,-999.0,-999.0,95,0.12,,,0.21,tws,2013-04-27 19:35:00,
2013-04-27 15:40:00,51.8,50.5,30.06,North,-999,-999.0,-999.0,95,0.12,,,0.22,tws,2013-04-27 19:40:00,
2013-04-27 15:45:00,51.7,50.6,30.06,North,-999,-999.0,-999.0,95,0.00,,,0.22,tws,2013-04-27 19:45:00,
2013-04-27 15:50:00,51.8,50.6,30.06,North,-999,-999.0,-999.0,95,0.00,,,0.22,tws,2013-04-27 19:50:00,
2013-04-27 15:55:00,51.7,50.6,30.06,North,-999,-999.0,-999.0,96,0.12,,,0.23,tws,2013-04-27 19:55:00,
2013-04-27 16:00:00,51.7,50.7,30.06,North,-999,-999.0,-999.0,96,0.00,,,0.23,tws,2013-04-27 20:00:00,
2013-04-27 16:05:00,51.7,50.7,30.06,North,-999,-999.0,-999.0,96,0.12,,,0.24,tws,2013-04-27 20:05:00,
2013-04-27 16:10:00,51.7,50.8,30.06,North,-999,-999.0,-999.0,96,0.00,,,0.24,tws,2013-04-27 20:10:00,
2013-04-27 16:20:00,51.7,51.0,30.06,North,-999,-999.0,-999.0,97,0.12,,,0.26,tws,2013-04-27 20:20:00,
2013-04-27 16:25:00,51.9,51.3,30.06,North,-999,-999.0,-999.0,97,0.12,,,0.27,tws,2013-04-27 20:25:00,
2013-04-27 16:30:00,52.1,51.5,30.06,North,-999,-999.0,-999.0,98,0.12,,,0.28,tws,2013-04-27 20:30:00,
2013-04-27 16:35:00,52.1,51.7,30.06,North,-999,-999.0,-999.0,98,0.12,,,0.29,tws,2013-04-27 20:35:00,
2013-04-27 16:40:00,52.2,51.7,30.05,North,-999,-999.0,-999.0,98,0.00,,,0.29,tws,2013-04-27 20:40:00,
2013-04-27 16:45:00,52.4,51.9,30.04,North,-999,-999.0,-999.0,98,0.12,,,0.30,tws,2013-04-27 20:45:00,
2013-04-27 16:50:00,52.5,52.0,30.03,North,-999,-999.0,-999.0,98,0.12,,,0.31,tws,2013-04-27 20:50:00,
2013-04-27 16:55:00,52.5,52.1,30.02,North,-999,-999.0,-999.0,98,0.12,,,0.32,tws,2013-04-27 20:55:00,
2013-04-27 17:00:00,52.6,52.1,30.02,North,-999,-999.0,-999.0,98,0.00,,,0.32,tws,2013-04-27 21:00:00,
2013-04-27 17:05:00,52.6,52.3,30.03,North,-999,-999.0,-999.0,98,0.12,,,0.33,tws,2013-04-27 21:05:00,
2013-04-27 17:10:00,52.7,52.4,30.03,North,-999,-999.0,-999.0,98,0.00,,,0.33,tws,2013-04-27 21:10:00,
2013-04-27 17:15:00,52.6,52.2,30.03,North,-999,-999.0,-999.0,98,0.00,,,0.33,tws,2013-04-27 21:15:00,
2013-04-27 17:20:00,52.4,52.0,30.02,North,-999,-999.0,-999.0,98,0.00,,,0.33,tws,2013-04-27 21:20:00,
2013-04-27 17:25:00,52.5,52.2,30.02,North,-999,-999.0,-999.0,99,0.00,,,0.33,tws,2013-04-27 21:25:00,
2013-04-27 17:30:00,52.6,52.4,30.02,North,-999,-999.0,-999.0,99,0.00,,,0.33,tws,2013-04-27 21:30:00,
2013-04-27 17:35:00,52.7,52.5,30.02,North,-999,-999.0,-999.0,99,0.00,,,0.33,tws,2013-04-27 21:35:00,
2013-04-27 17:40:00,52.6,52.3,30.02,North,-999,-999.0,-999.0,98,0.00,,,0.33,tws,2013-04-27 21:40:00,
2013-04-27 17:45:00,52.6,52.4,30.02,North,-999,-999.0,-999.0,99,0.00,,,0.33,tws,2013-04-27 21:45:00,
2013-04-27 17:50:00,52.5,52.2,30.02,North,-999,-999.0,-999.0,99,0.00,,,0.33,tws,2013-04-27 21:50:00,
2013-04-27 17:55:00,52.5,52.4,30.03,North,-999,-999.0,-999.0,99,0.12,,,0.34,tws,2013-04-27 21:55:00,
2013-04-27 18:00:00,52.5,52.3,30.03,North,-999,-999.0,-999.0,99,0.00,,,0.34,tws,2013-04-27 22:00:00,
2013-04-27 18:05:00,52.4,52.2,30.03,North,-999,-999.0,-999.0,99,0.00,,,0.34,tws,2013-04-27 22:05:00,
2013-04-27 18:10:00,52.3,52.2,30.03,North,-999,-999.0,-999.0,99,0.00,,,0.34,tws,2013-04-27 22:10:00,
2013-04-27 18:15:00,52.3,52.3,30.02,North,-999,-999.0,-999.0,99,0.00,,,0.34,tws,2013-04-27 22:15:00,
2013-04-27 18:20:00,52.4,52.4,30.02,North,-999,-999.0,-999.0,100,0.00,,,0.34,tws,2013-04-27 22:20:00,
2013-04-27 18:25:00,52.5,52.5,30.02,North,-999,-999.0,-999.0,100,0.12,,,0.35,tws,2013-04-27 22:25:00,
2013-04-27 18:30:00,52.4,52.3,30.02,North,-999,-999.0,-999.0,99,0.12,,,0.36,tws,2013-04-27 22:30:00,
2013-04-27 18:35:00,52.4,52.4,30.02,North,-999,-999.0,-999.0,100,0.00,,,0.36,tws,2013-04-27 22:35:00,
2013-04-27 18:40:00,52.4,52.4,30.02,North,-999,-999.0,-999.0,100,0.12,,,0.37,tws,2013-04-27 22:40:00,
2013-04-27 18:45:00,52.3,52.3,30.02,North,-999,-999.0,-999.0,100,0.12,,,0.38,tws,2013-04-27 22:45:00,
2013-04-27 18:50:00,52.3,52.3,30.02,North,-999,-999.0,-999.0,100,0.24,,,0.40,tws,2013-04-27 22:50:00,
2013-04-27 18:55:00,52.2,52.3,30.02,North,-999,-999.0,-999.0,100,0.12,,,0.41,tws,2013-04-27 22:55:00,
2013-04-27 19:00:00,52.1,52.2,30.02,North,-999,-999.0,-999.0,100,0.12,,,0.42,tws,2013-04-27 23:00:00,
2013-04-27 19:05:00,52.1,52.1,30.02,North,-999,-999.0,-999.0,100,0.24,,,0.44,tws,2013-04-27 23:05:00,
2013-04-27 19:10:00,52.0,52.0,30.02,North,-999,-999.0,-999.0,100,0.12,,,0.45,tws,2013-04-27 23:10:00,
2013-04-27 19:15:00,52.0,52.0,30.02,North,-999,-999.0,-999.0,100,0.12,,,0.46,tws,2013-04-27 23:15:00,
2013-04-27 19:20:00,52.0,52.2,30.01,North,-999,-999.0,-999.0,100,0.12,,,0.47,tws,2013-04-27 23:20:00,
2013-04-27 19:25:00,52.0,52.2,30.01,North,-999,-999.0,-999.0,100,0.12,,,0.48,tws,2013-04-27 23:25:00,
2013-04-27 19:30:00,52.0,52.2,30.00,North,-999,-999.0,-999.0,100,0.12,,,0.49,tws,2013-04-27 23:30:00,
2013-04-27 19:35:00,52.0,52.2,30.02,North,-999,-999.0,-999.0,100,0.12,,,0.50,tws,2013-04-27 23:35:00,
2013-04-27 19:40:00,52.0,52.2,30.02,North,-999,-999.0,-999.0,100,0.12,,,0.51,tws,2013-04-27 23:40:00,
2013-04-27 19:45:00,51.9,52.1,30.01,North,-999,-999.0,-999.0,100,0.12,,,0.52,tws,2013-04-27 23:45:00,
2013-04-27 19:50:00,51.8,52.0,30.00,North,-999,-999.0,-999.0,100,0.12,,,0.53,tws,2013-04-27 23:50:00,
2013-04-27 19:55:00,51.7,51.9,30.00,North,-999,-999.0,-999.0,100,0.00,,,0.53,tws,2013-04-27 23:55:00,
2013-04-27 20:00:00,51.6,51.8,30.00,North,-999,-999.0,-999.0,100,0.12,,,0.54,tws,2013-04-28 00:00:00,
2013-04-27 20:05:00,51.5,51.7,30.00,North,-999,-999.0,-999.0,100,0.12,,,0.55,tws,2013-04-28 00:05:00,
2013-04-27 20:10:00,51.5,51.6,30.00,North,-999,-999.0,-999.0,100,0.12,,,0.56,tws,2013-04-28 00:10:00,
2013-04-27 20:15:00,51.4,51.7,30.00,North,-999,-999.0,-999.0,100,0.00,,,0.56,tws,2013-04-28 00:15:00,
2013-04-27 20:20:00,51.3,51.6,30.00,North,-999,-999.0,-999.0,100,0.12,,,0.57,tws,2013-04-28 00:20:00,
2013-04-27 20:25:00,51.3,51.5,30.00,North,-999,-999.0,-999.0,100,0.00,,,0.57,tws,2013-04-28 00:25:00,
2013-04-27 20:30:00,51.2,51.5,30.00,North,-999,-999.0,-999.0,101,0.12,,,0.58,tws,2013-04-28 00:30:00,
2013-04-27 20:40:00,51.2,51.5,30.01,North,-999,-999.0,-999.0,101,0.00,,,0.58,tws,2013-04-28 00:40:00,
2013-04-27 20:45:00,51.1,51.4,30.00,North,-999,-999.0,-999.0,101,0.00,,,0.58,tws,2013-04-28 00:45:00,
2013-04-27 20:50:00,51.0,51.3,30.00,North,-999,-999.0,-999.0,101,0.00,,,0.58,tws,2013-04-28 00:50:00,
2013-04-27 20:55:00,51.0,51.2,30.00,North,-999,-999.0,-999.0,100,0.12,,,0.59,tws,2013-04-28 00:55:00,
2013-04-27 21:00:00,51.0,51.3,30.00,North,-999,-999.0,-999.0,101,0.00,,,0.59,tws,2013-04-28 01:00:00,
2013-04-27 21:05:00,50.9,51.3,30.00,North,-999,-999.0,-999.0,101,0.00,,,0.59,tws,2013-04-28 01:05:00,
2013-04-27 21:10:00,51.0,51.3,30.01,North,-999,-999.0,-999.0,101,0.00,,,0.59,tws,2013-04-28 01:10:00,
2013-04-27 21:15:00,50.9,51.3,30.01,North,-999,-999.0,-999.0,101,0.00,,,0.59,tws,2013-04-28 01:15:00,
2013-04-27 21:20:00,50.9,51.2,30.01,North,-999,-999.0,-999.0,101,0.12,,,0.60,tws,2013-04-28 01:20:00,
2013-04-27 21:25:00,51.0,51.4,30.00,North,-999,-999.0,-999.0,101,0.00,,,0.60,tws,2013-04-28 01:25:00,
2013-04-27 21:30:00,51.0,51.3,30.00,North,-999,-999.0,-999.0,101,0.00,,,0.60,tws,2013-04-28 01:30:00,
2013-04-27 21:35:00,51.0,51.3,30.00,North,-999,-999.0,-999.0,101,0.00,,,0.60,tws,2013-04-28 01:35:00,
2013-04-27 21:40:00,51.0,51.4,30.01,North,-999,-999.0,-999.0,101,0.00,,,0.60,tws,2013-04-28 01:40:00,
2013-04-27 21:45:00,51.0,51.4,30.01,North,-999,-999.0,-999.0,101,0.00,,,0.60,tws,2013-04-28 01:45:00,
2013-04-27 21:50:00,51.0,51.4,30.01,North,-999,-999.0,-999.0,101,0.12,,,0.61,tws,2013-04-28 01:50:00,
2013-04-27 21:55:00,50.8,51.2,30.01,North,-999,-999.0,-999.0,101,0.00,,,0.61,tws,2013-04-28 01:55:00,
2013-04-27 22:00:00,50.8,51.2,30.01,North,-999,-999.0,-999.0,101,0.00,,,0.61,tws,2013-04-28 02:00:00,
2013-04-27 22:05:00,50.8,51.1,30.01,North,-999,-999.0,-999.0,101,0.00,,,0.61,tws,2013-04-28 02:05:00,
2013-04-27 22:10:00,50.8,51.3,30.01,North,-999,-999.0,-999.0,101,0.00,,,0.61,tws,2013-04-28 02:10:00,
2013-04-27 22:15:00,50.9,51.3,30.01,North,-999,-999.0,-999.0,101,0.00,,,0.61,tws,2013-04-28 02:15:00,
2013-04-27 22:20:00,50.8,51.3,30.01,North,-999,-999.0,-999.0,101,0.12,,,0.62,tws,2013-04-28 02:20:00,
2013-04-27 22:25:00,50.7,51.1,30.01,North,-999,-999.0,-999.0,101,0.12,,,0.63,tws,2013-04-28 02:25:00,
2013-04-27 22:30:00,50.6,51.1,30.00,North,-999,-999.0,-999.0,101,0.00,,,0.63,tws,2013-04-28 02:30:00,
2013-04-27 22:35:00,50.6,51.0,30.00,North,-999,-999.0,-999.0,101,0.00,,,0.63,tws,2013-04-28 02:35:00,
2013-04-27 22:40:00,50.6,51.0,30.00,North,-999,-999.0,-999.0,101,0.00,,,0.63,tws,2013-04-28 02:40:00,
2013-04-27 22:45:00,50.6,51.0,30.00,North,-999,-999.0,-999.0,101,0.00,,,0.63,tws,2013-04-28 02:45:00,
2013-04-27 22:50:00,50.6,51.1,30.00,North,-999,-999.0,-999.0,101,0.00,,,0.63,tws,2013-04-28 02:50:00,
2013-04-27 22:55:00,50.6,51.0,30.00,North,-999,-999.0,-999.0,101,0.00,,,0.63,tws,2013-04-28 02:55:00,
2013-04-27 23:00:00,50.5,51.0,30.00,North,-999,-999.0,-999.0,101,0.00,,,0.63,tws,2013-04-28 03:00:00,
2013-04-27 23:05:00,50.5,50.9,30.00,North,-999,-999.0,-999.0,101,0.00,,,0.63,tws,2013-04-28 03:05:00,
2013-04-27 23:10:00,50.5,50.9,30.00,North,-999,-999.0,-999.0,101,0.00,,,0.63,tws,2013-04-28 03:10:00,
2013-04-27 23:15:00,50.4,50.9,30.00,North,-999,-999.0,-999.0,101,0.12,,,0.64,tws,2013-04-28 03:15:00,
2013-04-27 23:20:00,50.4,50.8,29.99,North,-999,-999.0,-999.0,101,0.00,,,0.64,tws,2013-04-28 03:20:00,
2013-04-27 23:25:00,50.2,50.6,30.00,North,-999,-999.0,-999.0,101,0.00,,,0.64,tws,2013-04-28 03:25:00,
2013-04-27 23:30:00,50.0,50.4,30.00,North,-999,-999.0,-999.0,101,0.12,,,0.65,tws,2013-04-28 03:30:00,
2013-04-27 23:35:00,50.0,50.4,29.99,North,-999,-999.0,-999.0,101,0.00,,,0.65,tws,2013-04-28 03:35:00,
2013-04-27 23:40:00,49.9,50.3,29.99,North,-999,-999.0,-999.0,101,0.00,,,0.65,tws,2013-04-28 03:40:00,
2013-04-27 23:45:00,49.9,50.3,29.99,North,-999,-999.0,-999.0,101,0.00,,,0.65,tws,2013-04-28 03:45:00,
2013-04-27 23:50:00,49.9,50.3,29.99,North,-999,-999.0,-999.0,101,0.00,,,0.65,tws,2013-04-28 03:50:00,
2013-04-27 23:55:00,49.9,50.4,29.99,North,-999,-999.0,-999.0,101,0.00,,,0.65,tws,2013-04-28 03:55:00,